User: anonymous   Login
Location: *
(17.3280°S, 114.7300°W)
Time: 18:37:52
(UTC+00:00)
Language:

GPS 2-17 Rocket1 - Orbit

View from above orbital plane
View from above orbital plane
View from above satellite
View from above satellite

Ground track
Ground track

The orbit data is extracted from the following two-line orbital elements,

1 22276U 92089B   20297.93144650 +.00000650 +00000-0 +26757-4 0  9991
2 22276 020.2875 009.5646 0062872 349.6616 166.3175 14.84561450483984
Epoch (UTC): 23 October 2020 22:21:16
Eccentricity: 0.0062872
inclination: 20.2875°
perigee height: 571 km
apogee height: 659 km
right ascension of ascending node: 9.5646°
argument of perigee: 349.6616°
revolutions per day: 14.84561450
mean anomaly at epoch: 166.3175°
orbit number at epoch: 48398

The dashed part of the orbit path shows where the satellite is in the earth's shadow,  

DLR